EW4987 Weather Reports


Display with metric or nautical units.
time (UTC)temp
F
wind
direction
speed
MPH
gust
MPH
rain 1hr
in
rain 24hr
in
rain mn
in
humidity
%
barometer
mb
20260901211600 74 198 0.0 11.0 0.00 0.00 0.00 39 1006.7
20260901210056 73 163 0.0 0.0 0.00 0.00 0.00 41 1007.0
20260901204602 74 178 0.0 1.0 0.00 0.00 0.00 42 1007.3
20260901203047 74 203 0.0 1.0 0.00 0.00 0.00 41 1007.5
20260901201542 74 157 0.0 0.0 0.00 0.00 0.00 38 1007.7
20260901200100 73 167 0.0 0.0 0.00 0.00 0.00 41 1007.9
20260901194540 73 360 0.0 0.0 0.00 0.00 0.00 43 1008.0
20260901193028 72 167 0.0 1.0 0.00 0.00 0.00 43 1008.4
20260901191530 71 360 0.0 1.0 0.00 0.00 0.00 43 1008.6
20260901190023 70 172 0.0 1.0 0.00 0.00 0.00 43 1008.7
20260901184515 70 159 0.0 0.0 0.00 0.00 0.00 43 1008.8
20260901183011 71 159 0.0 1.0 0.00 0.00 0.00 44 1008.7
20260901181507 71 148 0.0 15.0 0.00 0.00 0.00 43 1008.9
20260901180002 72 153 0.0 0.0 0.00 0.00 0.00 43 1009.0
20260901174557 72 360 0.0 1.0 0.00 0.00 0.00 43 1009.2
20260901173053 72 174 0.0 1.0 0.00 0.00 0.00 43 1009.4
20260901171559 70 186 0.0 2.0 0.00 0.00 0.00 43 1009.5
20260901170055 70 176 0.0 3.0 0.00 0.00 0.00 42 1009.7
20260901164541 70 205 0.0 5.0 0.00 0.00 0.00 36 1009.8
20260901163042 69 175 0.0 1.0 0.00 0.00 0.00 40 1010.0
20260901161535 68 187 0.0 1.0 0.00 0.00 0.00 41 1010.2
20260901160026 67 360 0.0 10.0 0.00 0.00 0.00 39 1010.6
20260901154521 66 202 0.0 1.0 0.00 0.00 0.00 30 1010.8
20260901153021 63 257 0.0 0.0 0.00 0.00 0.00 4 1011.0
20260901151528 60 257 0.0 0.0 0.00 0.00 0.00 1 1011.1
20260901150010 57 223 0.0 0.0 0.00 0.00 0.00 1 1011.2
20260901144506 56 211 0.0 0.0 0.00 0.00 0.00 1 1011.2
20260901143119 55 207 0.0 0.0 0.00 0.00 0.00 1 1011.3
20260901141603 54 169 0.0 0.0 0.00 0.00 0.00 1 1011.3
20260901140128 54 153 0.0 0.0 0.00 0.00 0.00 1 1011.5
20260901134546 53 153 0.0 0.0 0.00 0.00 0.00 1 1011.5
20260901133042 51 153 0.0 0.0 0.00 0.00 0.00 1 1011.3
20260901131541 51 153 0.0 0.0 0.00 0.00 0.00 1 1011.2
20260901130037 51 153 0.0 0.0 0.00 0.00 0.00 1 1011.2
20260901124527 52 153 0.0 0.0 0.00 0.00 0.00 1 1011.0
20260901123023 53 152 0.0 0.0 0.00 0.00 0.00 1 1010.9
20260901121519 56 153 0.0 1.0 0.00 0.00 0.00 1 1011.0
20260901120019 56 141 0.0 2.0 0.00 0.00 0.00 1 1010.9
20260901114511 57 137 0.0 1.0 0.00 0.00 0.00 1 1010.8
20260901113006 56 135 0.0 1.0 0.00 0.00 0.00 1 1010.8
20260901111502 56 135 0.0 3.0 0.00 0.00 0.00 1 1010.9
20260901110058 56 159 0.0 0.0 0.00 0.00 0.00 1 1011.1
20260901104552 57 179 0.0 0.0 0.00 0.00 0.00 1 1011.3
20260901103048 57 198 0.0 1.0 0.00 0.00 0.00 1 1011.3
20260901101559 57 200 0.0 0.0 0.00 0.00 0.00 1 1011.3
20260901100048 58 200 0.0 1.0 0.00 0.00 0.00 1 1011.3
20260901094541 58 207 0.0 1.0 0.00 0.00 0.00 1 1011.3
20260901093030 59 205 0.0 1.0 0.00 0.00 0.00 1 1011.2
20260901091544 59 200 0.0 2.0 0.00 0.00 0.00 1 1011.2
20260901090021 59 179 0.0 1.0 0.00 0.00 0.00 1 1011.2
20260901084532 59 202 0.0 2.0 0.00 0.00 0.00 1 1011.2
20260901083014 58 194 0.0 0.0 0.00 0.00 0.00 1 1011.2
20260901081512 58 183 0.0 1.0 0.00 0.00 0.00 1 1011.4
20260901080004 58 156 0.0 0.0 0.00 0.00 0.00 1 1011.7
20260901074559 58 148 0.0 0.0 0.00 0.00 0.00 1 1011.9
20260901073055 57 159 0.0 0.0 0.00 0.00 0.00 1 1012.0
20260901071550 56 160 0.0 0.0 0.00 0.00 0.00 1 1011.9
20260901070051 56 160 0.0 0.0 0.00 0.00 0.00 1 1011.9
20260901064542 57 160 0.0 0.0 0.00 0.00 0.00 1 1012.2
20260901063053 57 159 0.0 0.0 0.00 0.00 0.00 1 1012.2
20260901061535 57 159 0.0 0.0 0.00 0.00 0.00 1 1012.2
20260901060029 58 159 0.0 0.0 0.00 0.00 0.00 1 1012.0
20260901054524 58 159 0.0 0.0 0.00 0.00 0.00 1 1012.0
20260901053023 58 167 0.0 0.0 0.00 0.00 0.00 1 1012.1
20260901051515 59 172 0.0 1.0 0.00 0.00 0.00 1 1012.2
20260901050012 59 172 0.0 0.0 0.00 0.00 0.00 1 1012.1
20260901044507 60 172 0.0 0.0 0.00 0.00 0.00 26 1012.0
20260901043008 61 172 0.0 0.0 0.00 0.00 0.00 40 1012.0
20260901041558 61 172 0.0 0.0 0.00 0.00 0.00 42 1012.1
20260901034550 61 154 0.0 0.0 0.00 0.00 0.00 42 1012.2
20260901033045 61 176 0.0 0.0 0.00 0.00 0.00 44 1012.3
20260901031541 61 176 0.0 1.0 0.00 0.00 0.00 45 1012.2
20260901030039 61 188 0.0 0.0 0.00 0.00 0.00 43 1012.0
20260901024536 62 188 0.0 0.0 0.00 0.00 0.00 44 1011.9
20260901023028 62 190 0.0 0.0 0.00 0.00 0.00 47 1011.8
20260901021528 63 175 0.0 0.0 0.00 0.00 0.00 48 1011.3
20260901020019 63 360 0.0 0.0 0.00 0.00 0.00 47 1011.3
20260901014514 63 171 0.0 0.0 0.00 0.00 0.00 45 1011.1
20260901013011 64 171 0.0 0.0 0.00 0.00 0.00 46 1011.2
20260901011507 65 128 0.0 0.0 0.00 0.00 0.00 49 1011.1
20260901004558 67 182 0.0 0.0 0.00 0.00 0.00 46 1010.7
20260901003057 68 207 0.0 0.0 0.00 0.00 0.00 44 1010.6
20260901001559 68 360 0.0 0.0 0.00 0.00 0.00 44 1010.5
20260901000051 68 220 0.0 0.0 0.00 0.00 0.00 41 1009.8
20260831234546 68 163 0.0 0.0 0.00 0.00 0.00 43 1009.6
20260831233041 69 202 0.0 0.0 0.00 0.00 0.00 46 1009.5
20260831231554 70 171 0.0 0.0 0.00 0.00 0.00 46 1009.4
20260831230034 71 172 0.0 0.0 0.00 0.00 0.00 46 1009.1
20260831224547 72 201 0.0 0.0 0.00 0.00 0.00 45 1008.7
20260831223024 72 182 0.0 0.0 0.00 0.00 0.00 45 1008.5